FENGYUN 1C DEB, 29733

Orbit data source: Space-Track

FENGYUN 1C DEB, 29733 is space debris in SSO originally from a launch on Mon, 10 May 1999 UTC launched from the Taiyaun Space Center, China (TSC). Fengyun 1C debris stems from the Chinese weather satellite Fengyun-1C, which was intentionally destroyed by a Chinese anti-satellite missile in 2007. This event dramatically increased the amount of space debris, with thousands of trackable fragments posing hazards to satellites and human spaceflight. The Fengyun 1C debris cloud has become a focal point in discussions about space sustainability and the need for international regulations to prevent the creation of new debris.

Loading next visibility...
Identifier
29733, 1999-025X
Orbit
SSO
Country
Flag of CNCN / PRC
Related business
Manufacturer
Unknown
Mission
Spacecraft
Bus & Motor
Unknown
Mass
Unknown
Launch date (UTC)
1999-05-10 (27 years ago)
Launch vehicle
Unknown
Launch site
Taiyaun Space Center, China (TSC)
Object type
Payload
Rocket body
Debris
Shape & HBR
Unknown shape, 0.1 m
Radar Cross Section
Medium (>0.1 m² and <1 m²)

Expand to show TLE details & history
Last TLE update: 6 hours ago

TLE from 6 hours ago
0 FENGYUN 1C DEB
1 29733U 99025X   26255.28552293  .00000932  00000-0  16198-2 0  9996
2 29733  99.2059 274.6424 0563749 290.2157 125.5448 12.96908241926658
Epoch: 2026-09-12T06:51Z
TLE epoch observation values (Epoch: 2026-09-12T06:51:09.181Z)
Latitude
59.59587°
Longitude
164.60349°
Altitude
1,550.408 km
Speed
6.972 km/s
True Right ascension
17h 14m 45s
True Declination
59° 27' 38"
Sunlit
Object was in daylight at epoch
Visualization orbit readout
Latitude
Unknown
Longitude
Unknown
Altitude
Unknown
Speed
Unknown
Apparent Right ascension
Unknown
Apparent Declination
Unknown
Sunlit
N/A
Visualization observer readout
Local Sidereal Time
05:38:37
Azimuth
Unknown
Elevation
Unknown
Doppler factor
Unknown
Orbital elements
Apogee altitude
1,702.815 km
Perigee altitude
840.313 km
Semi-major axis
7,649.701 km
Eccentricity
0.05637
Inclination
99.2059°
RAAN
274.6424°
Arg. of periapsis
290.2157°
True anomaly
130.58748°
Mean anomaly
125.5448°
Eccentric anomaly
128.08708°
Mean motion
3.24397 °/min
Orbital period
110.98 mins
BSTAR
0.0016198
Loading maneuver chart data...
Computing Atmospheric mass density...
Loading historical data...
Loading historical data...
Loading historical data...
Loading historical data...
Loading historical data...
Loading historical data...
Loading historical data...

Documentation

Showing up to 5 results
|